KUIPER-00053

导读

KUIPER-00053是美国亚马逊“柯伊伯”(Project Kuiper)低轨宽带星座计划中的一颗卫星,于北京时间2025年6月23日由联合发射联盟(ULA)的Atlas V火箭从佛罗里达州卡纳维拉尔角发射升空,属于该星座的第二批组网卫星。该卫星旨在为全球覆盖不足地区提供低时延高速宽带服务,依托低轨卫星星座架构,助力全球互联网络普及,是亚马逊推进商业太空互联网布局的重要组成部分。

基本信息
目录编号:
64513
目录名称:
KUIPER-00053
国际标识:
2025-134P
轨道中心:
EARTH
卫星名称:
KUIPER-00053
卫星全名:
KUIPER-00053
卫星状态:
在轨 (已飞行445 天)
发射日期:
2025-06-23 UTC
国别 :
美国 (US)
星等 :
--
该卫星已列入 空间交会检测服务 Space Conjunction Data Service (SCDS) ,当前飞行风险评估等级: 无高风险
轨道信息
数据来源 国际轨道数据 AOE轨道数据
星历时间 2026-09-11T08:47:22+0800
15小时前
查看轨道信息
2026-09-10T22:00:00+0800
1天前
查看轨道信息
半长轴 7002.084km 7002.106km
偏心率 0.0002524 0.0002575
轨道倾角 51.900° 51.900°
近地点辐角 93.396° 88.231°
升交点赤经 121.665° 123.661°
平近点角 266.729° 32.411°
近地点 622.179km 622.165km
远地点 625.715km 625.773km
周期 97.185分钟 97.186分钟
每日圈数 14.817054 14.816984
详细信息
使用方式:
暂无
2D轨道图
3D轨道图
轨道高度分析图
轨道倾角分析图
轨道综合分析图
查看轨道综合分析图
交会数据列表
事件ID 空间交会对象 最接近时刻(TCA) 交会距离 交会风险概率(CRP) 交会风险指数(CRI) 操作
CDM_260913-115004-093006-451321
ASTROSAT (40930)
2026-09-13T
11:50:52+0000
0.846 km
远距离
2.841625E-5 中风险 0.64
CDM_260912-150305-801606-451323
T2V (58016)
2026-09-12T
15:03:21+0000
1.698 km
极远距离
4.392319E-6 低风险 0.48
CDM_260912-030301-578306-451325
2026-09-12T
03:03:20+0000
1.532 km
极远距离
3.154514E-6 低风险 0.45
CDM_260912-223403-915406-451322
2026-09-12T
22:34:33+0000
2.649 km
极远距离
1.475992E-6 低风险 0.38
与全量物体交会距离演化趋势
与全量物体交会风险概率演化趋势